NJE56Y EHEH-EPKK

Flight info

Callsign NJE56Y
Flight time N/A
Altitude 39000
Route VELNI Y869 SUMOP L179 MEVEL Z44 HMM DCT ZUCKA DCT GOBAX DCT LASIS T714 MOFKE
Aircraft CL60/M-SBDE1E2E3FGHIJ1J4J5J7M3RWXYZ/LB1V1D1

Departure

Time 2026-04-29 15:30
Airport Eindhoven Airport (EHEH)

Arrival

Time N/A
Airport Kraków John Paul II International Airport (EPKK)
Time Latitude Longitude Altitude Speed Heading
2026-04-29 15:07 51.45072 5.38179 83 ft 0 kts 307°
2026-04-29 15:25 51.45080 5.38163 83 ft 5 kts 307°
2026-04-29 15:25 51.45129 5.38132 83 ft 6 kts 36°
2026-04-29 15:25 51.45174 5.38194 83 ft 11 kts 36°
2026-04-29 15:26 51.45227 5.38219 83 ft 8 kts 327°
2026-04-29 15:26 51.45269 5.38131 83 ft 11 kts 305°
2026-04-29 15:26 51.45324 5.38007 82 ft 15 kts 304°
2026-04-29 15:26 51.45391 5.37852 83 ft 18 kts 305°
2026-04-29 15:27 51.45453 5.37707 83 ft 10 kts 287°
2026-04-29 15:27 51.45404 5.37611 83 ft 13 kts 213°
2026-04-29 15:27 51.45314 5.37514 83 ft 17 kts 215°
2026-04-29 15:27 51.45206 5.37390 83 ft 20 kts 213°
2026-04-29 15:28 51.45080 5.37249 82 ft 23 kts 214°
2026-04-29 15:28 51.44986 5.37143 83 ft 25 kts 214°
2026-04-29 15:28 51.44832 5.36974 83 ft 8 kts 200°
2026-04-29 15:28 51.44773 5.37011 83 ft 10 kts 133°
2026-04-29 15:29 51.44722 5.37103 83 ft 5 kts 121°
2026-04-29 15:29 51.45357 5.37835 101 ft 141 kts 38°
2026-04-29 15:30 51.47269 5.39988 1673 ft 196 kts 37°
2026-04-29 15:30 51.48428 5.41284 2671 ft 212 kts 37°
2026-04-29 15:30 51.49645 5.42643 3684 ft 218 kts 37°
2026-04-29 15:30 51.50881 5.44043 4703 ft 222 kts 40°
2026-04-29 15:31 51.51755 5.45977 5709 ft 226 kts 75°
2026-04-29 15:31 51.51672 5.48553 6751 ft 247 kts 104°
2026-04-29 15:31 51.51098 5.51214 7720 ft 261 kts 107°
2026-04-29 15:31 51.50497 5.53933 8685 ft 263 kts 106°
2026-04-29 15:32 51.49893 5.56713 9695 ft 267 kts 106°
2026-04-29 15:32 51.49333 5.59544 10690 ft 272 kts 104°
2026-04-29 15:32 51.48832 5.62508 11627 ft 282 kts 101°
2026-04-29 15:32 51.48473 5.65623 12507 ft 294 kts 92°
2026-04-29 15:33 51.48629 5.68962 13316 ft 308 kts 82°
2026-04-29 15:33 51.48924 5.72475 14104 ft 323 kts 82°
2026-04-29 15:33 51.49219 5.76095 14889 ft 335 kts 81°
2026-04-29 15:33 51.49528 5.79908 15659 ft 347 kts 81°
2026-04-29 15:34 51.49840 5.83784 16439 ft 357 kts 81°
2026-04-29 15:34 51.50158 5.87774 17221 ft 365 kts 81°
2026-04-29 15:34 51.50484 5.91878 18006 ft 372 kts 81°
2026-04-29 15:34 51.50812 5.96045 18791 ft 377 kts 81°
2026-04-29 15:35 51.51139 6.00220 19570 ft 381 kts 80°
2026-04-29 15:35 51.51469 6.04462 20357 ft 384 kts 80°
2026-04-29 15:35 51.51797 6.08710 21139 ft 387 kts 80°
2026-04-29 15:35 51.52131 6.13047 21935 ft 388 kts 80°
2026-04-29 15:36 51.52459 6.17339 22718 ft 389 kts 80°
2026-04-29 15:36 51.52837 6.21650 23505 ft 389 kts 78°
2026-04-29 15:36 51.53293 6.25846 24277 ft 389 kts 77°
2026-04-29 15:36 51.53765 6.30167 25078 ft 388 kts 77°
2026-04-29 15:37 51.54226 6.34415 25825 ft 389 kts 77°
2026-04-29 15:37 51.54692 6.38719 26481 ft 391 kts 77°
2026-04-29 15:37 51.55159 6.43047 27118 ft 394 kts 77°
2026-04-29 15:37 51.55630 6.47424 27757 ft 396 kts 77°
2026-04-29 15:38 51.56098 6.51803 28391 ft 398 kts 77°
2026-04-29 15:38 51.56613 6.56177 29023 ft 397 kts 72°
2026-04-29 15:38 51.57716 6.60285 29673 ft 393 kts 57°
2026-04-29 15:38 51.59313 6.63854 30197 ft 396 kts 52°
2026-04-29 15:39 51.60896 6.67251 30619 ft 401 kts 53°
2026-04-29 15:39 51.62563 6.70848 31127 ft 404 kts 53°
2026-04-29 15:39 51.64243 6.74483 31672 ft 404 kts 53°
2026-04-29 15:39 51.65917 6.78109 32217 ft 402 kts 53°
2026-04-29 15:40 51.67601 6.81762 32773 ft 400 kts 53°
2026-04-29 15:40 51.69237 6.85321 33307 ft 397 kts 53°
2026-04-29 15:40 51.70885 6.88908 33843 ft 395 kts 53°
2026-04-29 15:40 51.72519 6.92471 34356 ft 393 kts 53°
2026-04-29 15:41 51.74128 6.95983 34850 ft 391 kts 53°
2026-04-29 15:41 51.75753 6.99538 35344 ft 389 kts 53°
2026-04-29 15:41 51.77338 7.03009 35774 ft 388 kts 53°
2026-04-29 15:41 51.78936 7.06513 36151 ft 387 kts 53°
2026-04-29 15:42 51.80531 7.10016 36504 ft 387 kts 53°
2026-04-29 15:42 51.82122 7.13547 36839 ft 386 kts 54°
2026-04-29 15:42 51.83498 7.17265 37125 ft 387 kts 61°
2026-04-29 15:42 51.84547 7.21281 37329 ft 391 kts 68°
2026-04-29 15:43 51.85243 7.25600 37509 ft 396 kts 76°
2026-04-29 15:43 51.85528 7.30035 37714 ft 401 kts 83°
2026-04-29 15:43 51.85563 7.34565 37858 ft 404 kts 84°
2026-04-29 15:43 51.85588 7.39110 37992 ft 406 kts 84°
2026-04-29 15:44 51.85605 7.43671 38139 ft 408 kts 84°
2026-04-29 15:44 51.85625 7.48277 38295 ft 409 kts 84°
2026-04-29 15:44 51.85641 7.52871 38448 ft 410 kts 84°
2026-04-29 15:44 51.85659 7.57515 38605 ft 411 kts 84°
2026-04-29 15:45 51.85673 7.62086 38720 ft 412 kts 84°
2026-04-29 15:45 51.85685 7.66532 38903 ft 411 kts 85°
2026-04-29 15:45 51.85680 7.71168 39055 ft 413 kts 87°
2026-04-29 15:45 51.85509 7.75823 39194 ft 415 kts 89°
2026-04-29 15:46 51.85294 7.80513 39324 ft 416 kts 89°
2026-04-29 15:46 51.84870 7.89750 39357 ft 406 kts 89°
2026-04-29 15:47 51.84450 7.98772 39358 ft 398 kts 89°
2026-04-29 15:47 51.84032 8.07669 39353 ft 395 kts 89°
2026-04-29 15:48 51.83612 8.16521 39360 ft 394 kts 89°
2026-04-29 15:48 51.83184 8.25390 39356 ft 395 kts 89°
2026-04-29 15:49 51.82750 8.34256 39356 ft 395 kts 89°
2026-04-29 15:49 51.82316 8.43078 39355 ft 396 kts 89°
2026-04-29 15:50 51.81865 8.51968 39356 ft 396 kts 89°
2026-04-29 15:50 51.81412 8.60859 39353 ft 397 kts 89°
2026-04-29 15:51 51.80962 8.69643 39353 ft 399 kts 89°
2026-04-29 15:51 51.80494 8.78595 39352 ft 400 kts 89°
2026-04-29 15:52 51.80009 8.87583 39358 ft 402 kts 90°
2026-04-29 15:52 51.79519 8.96584 39363 ft 403 kts 90°
2026-04-29 15:53 51.79025 9.05594 39368 ft 405 kts 90°
2026-04-29 15:53 51.78525 9.14621 39371 ft 406 kts 90°
2026-04-29 15:54 51.78010 9.23758 39375 ft 408 kts 90°
2026-04-29 15:54 51.77488 9.32831 39378 ft 409 kts 90°
2026-04-29 15:55 51.76956 9.41984 39380 ft 409 kts 90°
2026-04-29 15:55 51.76412 9.51160 39385 ft 410 kts 90°
2026-04-29 15:56 51.75865 9.60308 39385 ft 410 kts 90°
2026-04-29 15:56 51.75321 9.69348 39385 ft 410 kts 90°
2026-04-29 15:57 51.74759 9.78537 39380 ft 411 kts 90°
2026-04-29 15:57 51.74184 9.87701 39381 ft 410 kts 90°
2026-04-29 15:58 51.73613 9.96813 39384 ft 410 kts 90°
2026-04-29 15:58 51.73022 10.05987 39383 ft 410 kts 90°
2026-04-29 15:59 51.72435 10.15130 39390 ft 409 kts 90°
2026-04-29 15:59 51.71838 10.24287 39396 ft 409 kts 90°
2026-04-29 16:00 51.71238 10.33373 39403 ft 410 kts 90°
2026-04-29 16:00 51.70626 10.42528 39389 ft 411 kts 90°
2026-04-29 16:01 51.70007 10.51764 39205 ft 413 kts 90°
2026-04-29 16:01 51.69384 10.60837 39368 ft 408 kts 90°
2026-04-29 16:02 51.68760 10.69843 39422 ft 413 kts 91°
2026-04-29 16:02 51.68118 10.79097 39400 ft 416 kts 91°
2026-04-29 16:03 51.67459 10.88401 39398 ft 416 kts 91°
2026-04-29 16:03 51.66934 10.97685 39397 ft 416 kts 90°
2026-04-29 16:04 51.66425 11.06971 39397 ft 417 kts 90°
2026-04-29 16:04 51.65913 11.16246 39398 ft 418 kts 90°
2026-04-29 16:05 51.65384 11.25559 39397 ft 419 kts 90°
2026-04-29 16:05 51.64847 11.34906 39401 ft 419 kts 90°
2026-04-29 16:06 51.64305 11.44262 39397 ft 419 kts 90°
2026-04-29 16:06 51.63755 11.53597 39402 ft 420 kts 90°
2026-04-29 16:07 51.63196 11.62964 39401 ft 421 kts 90°
2026-04-29 16:07 51.62626 11.72391 39402 ft 421 kts 91°
2026-04-29 16:08 51.62052 11.81736 39401 ft 421 kts 91°
2026-04-29 16:08 51.61469 11.91127 39402 ft 421 kts 90°
2026-04-29 16:09 51.60883 12.00434 39402 ft 421 kts 90°
2026-04-29 16:09 51.60286 12.09795 39400 ft 420 kts 90°
2026-04-29 16:10 51.59680 12.19163 39402 ft 420 kts 90°
2026-04-29 16:10 51.59071 12.28479 39414 ft 420 kts 90°
2026-04-29 16:11 51.58450 12.37855 39403 ft 421 kts 90°
2026-04-29 16:11 51.57822 12.47222 39403 ft 421 kts 91°
2026-04-29 16:12 51.57187 12.56583 39404 ft 422 kts 91°
2026-04-29 16:12 51.56540 12.66016 39417 ft 422 kts 91°
2026-04-29 16:13 51.55886 12.75427 39405 ft 424 kts 91°
2026-04-29 16:13 51.55287 12.84825 39410 ft 424 kts 90°
2026-04-29 16:14 51.54723 12.94244 39413 ft 426 kts 90°
2026-04-29 16:14 51.54145 13.03740 39416 ft 427 kts 90°
2026-04-29 16:15 51.53557 13.13272 39419 ft 428 kts 90°
2026-04-29 16:15 51.52962 13.22784 39422 ft 429 kts 90°
2026-04-29 16:16 51.52358 13.32295 39422 ft 429 kts 90°
2026-04-29 16:16 51.51746 13.41804 39432 ft 430 kts 90°
2026-04-29 16:17 51.51125 13.51354 39419 ft 430 kts 90°
2026-04-29 16:17 51.50494 13.60910 39420 ft 430 kts 90°
2026-04-29 16:18 51.49860 13.70419 39417 ft 431 kts 91°
2026-04-29 16:18 51.49211 13.80005 39416 ft 431 kts 91°
2026-04-29 16:19 51.48555 13.89594 39415 ft 432 kts 91°
2026-04-29 16:19 51.47893 13.99153 39413 ft 432 kts 91°
2026-04-29 16:20 51.47221 14.08730 39410 ft 432 kts 91°
2026-04-29 16:20 51.46542 14.18296 39406 ft 431 kts 91°
2026-04-29 16:21 51.45858 14.27826 39408 ft 432 kts 91°
2026-04-29 16:21 51.45162 14.37401 39409 ft 432 kts 91°
2026-04-29 16:22 51.44460 14.46955 39407 ft 433 kts 91°
2026-04-29 16:22 51.43749 14.56524 39404 ft 433 kts 91°
2026-04-29 16:23 51.43031 14.66076 39407 ft 433 kts 92°
2026-04-29 16:23 51.42304 14.75641 39407 ft 434 kts 92°
2026-04-29 16:24 51.41569 14.85202 39413 ft 434 kts 92°
2026-04-29 16:24 51.40722 14.94823 39416 ft 438 kts 98°
2026-04-29 16:25 51.38663 15.04118 39414 ft 445 kts 108°
2026-04-29 16:25 51.36297 15.13287 39416 ft 445 kts 108°
2026-04-29 16:26 51.33945 15.22369 39416 ft 445 kts 108°
2026-04-29 16:26 51.31567 15.31514 39414 ft 446 kts 108°
2026-04-29 16:27 51.29175 15.40670 39408 ft 446 kts 108°
2026-04-29 16:27 51.26793 15.49755 39406 ft 446 kts 108°
2026-04-29 16:28 51.24384 15.58903 39406 ft 446 kts 108°
2026-04-29 16:28 51.21985 15.67975 39405 ft 446 kts 109°
2026-04-29 16:29 51.19567 15.77086 39401 ft 446 kts 109°
2026-04-29 16:29 51.17144 15.86176 39411 ft 446 kts 109°
2026-04-29 16:30 51.14783 15.95296 39422 ft 446 kts 108°
2026-04-29 16:30 51.12432 16.04411 39425 ft 446 kts 108°
2026-04-29 16:31 51.10061 16.13564 39421 ft 446 kts 108°
2026-04-29 16:31 51.07692 16.22674 39416 ft 445 kts 108°
2026-04-29 16:32 51.05324 16.31742 39415 ft 446 kts 108°
2026-04-29 16:32 51.04924 16.33268 39415 ft 446 kts 108°